Terug naar catalogus

DELTA 1 DEB

ActiefPO
NORAD 8678·DEBRIS·🇺🇸 United States

Gelanceerd Jan 22, 1975 vanaf Vandenberg Space Force Base

Loading…

Volgende Passages (komende 24 uur)

TLE

VersSource: Space-Track

Epoch: Sep 13, 2026, 11:50 UTC

1 08678U 75004F   26256.49367949  .00000055  00000-0  43914-4 0  9992
2 08678  97.6351 236.1437 0173244 245.3222 112.9828 14.10386333651037

Volg DELTA 1 DEB in realtime met AllMySat

Download on the App Store